Weather History for Charlottesville, VA

Change the Weather History Date:

Thursday, July 4, 2013

  Actual Average Record
Temperature  
Mean Temperature 79 °F 75 °F  
Max Temperature 87 °F 86 °F 101 °F (1966)
Min Temperature 71 °F 64 °F 51 °F (1938)
Degree Days  
Heating Degree Days 0 0  
Month to date heating degree days 0 0  
Since 1 June heating degree days 2 11  
Since 1 July heating degree days 0 0  
Cooling Degree Days 14 10  
Month to date cooling degree days 47 40  
Year to date cooling degree days 440 345  
Since 1 June cooling degree days 293 259  
Growing Degree Days 29 (Base 50)    
Moisture  
Dew Point 71 °F    
Average Humidity 74    
Maximum Humidity 94    
Minimum Humidity 53    
Precipitation  
Precipitation 0.16 in 0.13 in 1.13 in (2004)
Month to date precipitation 1.53 0.54  
Year to date precipitation 25.22 20.74  
Sea Level Pressure  
Sea Level Pressure 30.23 in    
Wind  
Wind Speed 8 mph (SSW)    
Max Wind Speed 22 mph    
Max Gust Speed 26 mph    
Visibility 8 miles    
Events Rain    
T = Trace of Precipitation, MM = Missing Value Source: NWS Daily Summary

Daily Weather History Graph

Daily Weather History Graph

Search for Another Location

Airport:

Trip Planner

Search our weather history database for the weather conditions in past years. The results will help you decide how hot, cold, wet, or windy it might be!

Date:

Astronomy

Jul. 04, 2013 Rise Set
Actual Time 5:56 AM EDT 8:40 PM EDT
Civil Twilight 5:24 AM EDT 9:11 PM EDT
Nautical Twilight 4:45 AM EDT 9:50 PM EDT
Astronomical Twilight 4:01 AM EDT 10:34 PM EDT
Moon 3:10 AM EDT (7/4) 5:44 PM EDT (7/4)
Length of Visible Light 15h 46m
Length of Day
14h 44m
Waning Crescent, 11% of the Moon is Illuminated
Jul 4
Waning Crescent
Jul 8
New
Jul 15
First Quarter
Jul 22
Full
Jul 29
Last Quarter

Hourly Weather History & Observations

Time (EDT) Temp. Heat Index Dew Point Humidity Pressure Visibility Wind Dir Wind Speed Gust Speed Precip Events Conditions
12:53 AM 73.0 °F - 72.0 °F 96% 30.23 in 8.0 mi Calm Calm - N/A   Overcast
1:53 AM 71.1 °F - 70.0 °F 96% 30.22 in 5.0 mi South 3.5 mph - N/A   Overcast
2:12 AM 71.6 °F - 71.6 °F 100% 30.24 in 4.0 mi Calm Calm - N/A   Overcast
2:48 AM 73.4 °F - 71.6 °F 94% 30.24 in 10.0 mi SSW 3.5 mph - N/A   Overcast
2:53 AM 73.0 °F - 71.1 °F 93% 30.22 in 10.0 mi SSW 3.5 mph - N/A   Overcast
3:46 AM 73.4 °F - 71.6 °F 94% 30.23 in 10.0 mi South 9.2 mph - N/A   Overcast
3:53 AM 73.0 °F - 71.1 °F 93% 30.22 in 10.0 mi South 6.9 mph - N/A   Overcast
4:31 AM 71.6 °F - 71.6 °F 100% 30.24 in 10.0 mi South 11.5 mph - N/A   Scattered Clouds
4:40 AM 71.6 °F - 69.8 °F 94% 30.23 in 10.0 mi South 10.4 mph - N/A   Partly Cloudy
4:53 AM 72.0 °F - 70.0 °F 93% 30.22 in 10.0 mi South 10.4 mph - N/A   Clear
5:09 AM 71.6 °F - 69.8 °F 94% 30.24 in 10.0 mi South 13.8 mph - N/A   Partly Cloudy
5:50 AM 71.6 °F - 69.8 °F 94% 30.24 in 4.0 mi South 16.1 mph - N/A   Mostly Cloudy
5:53 AM 72.0 °F - 70.0 °F 93% 30.22 in 4.0 mi South 12.7 mph - N/A   Mostly Cloudy
6:50 AM 71.6 °F - 71.6 °F 100% 30.25 in 6.0 mi SSW 10.4 mph - N/A   Scattered Clouds
6:53 AM 73.0 °F - 71.1 °F 93% 30.23 in 6.0 mi SSW 9.2 mph - N/A   Scattered Clouds
7:09 AM 73.4 °F - 71.6 °F 94% 30.26 in 6.0 mi SSW 11.5 mph - N/A   Mostly Cloudy
7:27 AM 73.4 °F - 71.6 °F 94% 30.26 in 6.0 mi South 10.4 mph - N/A   Mostly Cloudy
7:53 AM 73.9 °F - 71.1 °F 91% 30.25 in 6.0 mi SSW 9.2 mph - N/A   Mostly Cloudy
8:08 AM 73.4 °F - 71.6 °F 94% 30.27 in 6.0 mi South 9.2 mph - N/A   Mostly Cloudy
8:28 AM 75.2 °F - 71.6 °F 89% 30.27 in 10.0 mi SSW 6.9 mph - N/A   Partly Cloudy
8:53 AM 75.9 °F - 71.1 °F 85% 30.26 in 10.0 mi South 11.5 mph - N/A   Mostly Cloudy
9:18 AM 77.0 °F - 71.6 °F 83% 30.28 in 10.0 mi South 10.4 mph - N/A   Overcast
9:39 AM 78.8 °F - 71.6 °F 78% 30.28 in 10.0 mi South 9.2 mph - N/A   Mostly Cloudy
9:53 AM 78.1 °F - 72.0 °F 81% 30.26 in 10.0 mi SSW 10.4 mph - N/A   Mostly Cloudy
10:53 AM 80.1 °F 83.6 °F 71.1 °F 74% 30.25 in 10.0 mi SSW 13.8 mph - N/A   Mostly Cloudy
11:53 AM 82.9 °F 88.8 °F 73.0 °F 72% 30.25 in 10.0 mi South 11.5 mph 19.6 mph N/A   Mostly Cloudy
12:00 PM 82.4 °F 87.2 °F 71.6 °F 70% 30.26 in 10.0 mi South 13.8 mph - N/A   Partly Cloudy
12:53 PM 84.0 °F 89.0 °F 71.1 °F 65% 30.24 in 10.0 mi South 15.0 mph - N/A   Partly Cloudy
1:02 PM 82.4 °F 87.2 °F 71.6 °F 70% 30.26 in 10.0 mi SSW 9.2 mph - N/A   Mostly Cloudy
1:53 PM 84.0 °F 89.6 °F 72.0 °F 67% 30.23 in 10.0 mi SSW 15.0 mph 19.6 mph N/A   Mostly Cloudy
2:03 PM 84.2 °F 89.6 °F 71.6 °F 66% 30.25 in 10.0 mi SSW 13.8 mph 20.7 mph N/A   Mostly Cloudy
2:53 PM 84.9 °F 90.1 °F 71.1 °F 63% 30.22 in 10.0 mi SSW 13.8 mph 20.7 mph N/A   Mostly Cloudy
3:53 PM 84.9 °F 90.1 °F 71.1 °F 63% 30.19 in 10.0 mi SW 4.6 mph - N/A   Mostly Cloudy
4:53 PM 87.1 °F 90.6 °F 68.0 °F 53% 30.18 in 10.0 mi South 8.1 mph - N/A   Clear
5:53 PM 84.0 °F 87.0 °F 68.0 °F 58% 30.17 in 10.0 mi South 12.7 mph - N/A   Partly Cloudy
6:32 PM 78.8 °F - 71.6 °F 78% 30.21 in 1.5 mi South 15.0 mph 26.5 mph 0.12 in Rain Heavy Rain
6:48 PM 78.8 °F - 71.6 °F 78% 30.20 in 10.0 mi SW 4.6 mph - 0.16 in   Mostly Cloudy
6:53 PM 79.0 °F - 72.0 °F 79% 30.18 in 10.0 mi SSW 4.6 mph - 0.16 in   Scattered Clouds
7:53 PM 80.1 °F 84.2 °F 73.0 °F 79% 30.19 in 10.0 mi SSW 3.5 mph - N/A   Scattered Clouds
8:53 PM 77.0 °F - 73.9 °F 90% 30.20 in 10.0 mi Calm Calm - 0.00 in   Scattered Clouds
9:53 PM 75.0 °F - 73.0 °F 94% 30.20 in 10.0 mi Calm Calm - N/A   Clear
10:53 PM 73.0 °F - 71.1 °F 93% 30.22 in 6.0 mi South 5.8 mph - N/A   Clear
11:53 PM 73.9 °F - 71.1 °F 91% 30.21 in 9.0 mi South 5.8 mph - N/A   Clear